Flag Weather past 2 weeks in Rathenow, Brandenburg, Germany

Now
53 °F

Overcast.


Feels Like: 53 °F
Forecast: 44 / 55 °F
Wind: 1 mph from South

Location: Neuruppin

Current Time: Oct 30, 2014 at 2:14:34 PM

Latest Report: Oct 30, 2014 at 1:00 PM


Visibility: 6 mi

Pressure: 30.28 "Hg

Humidity: 79%

Dew point: 46 °F

Location of RathenowLocation

Historic Weather in Rathenow — Graph

°F

Rathenow temperature yesterday

Maximum temperature yesterday: 45 °F (at 3:00 PM)
Minimum temperature yesterday: 36 °F (at 6:00 AM)
Average temperature yesterday: 42 °F

Past Weeks' High & Low Weather Summary

 TemperatureHumidityPressure
High71 °F (Oct 19, 3:00 PM)100% (Oct 18, 9:00 AM)30.32 "Hg (Oct 18, 9:00 AM)
Low36 °F (Oct 29, 6:00 AM)68% (Oct 19, 3:00 PM)29.44 "Hg (Oct 21, 9:00 PM)
Average51 °F91%30.02 "Hg
* Reported Oct 15 2:00 PM — Oct 30 1:00 PM, Rathenow, Weather by CustomWeather, © 2014

Note: Actual official high and low records may vary slightly from our data, if they occured in-between our weather recording intervals... More about our weather records

Advertising

Rathenow weather history for previous 24 hours

 ConditionsComfort  
Time TempWeatherWind HumidityBarometerVisibility
1:00 PM
Oct 30
53 °FOvercast.1 mph79%30.28 "Hg6 mi
12:00 PM54 °FPassing clouds.2 mph79%30.27 "Hg6 mi
11:00 AM51 °FPartly sunny.2 mph88%30.27 "Hg6 mi
9:00 AM47 °FLow clouds.1 mph96%30.26 "Hg2 mi
8:00 AM46 °FLow clouds.1 mph97%30.24 "Hg1 mi
7:00 AM46 °FLow clouds.No wind98%30.22 "Hg1 mi
6:00 AM46 °FLow clouds.1 mph98%30.21 "Hg1 mi
5:00 AM46 °FLow clouds.No wind98%30.19 "Hg1 mi
3:00 AM46 °FLow clouds.1 mph98%30.18 "Hg1 mi
2:00 AM46 °FLow clouds.1 mph97%30.17 "Hg1 mi
1:00 AM45 °FLow clouds.1 mph97%30.16 "Hg1 mi
12:00 AM45 °FLow clouds.1 mph97%30.15 "Hg1 mi
11:00 PM
Oct 29
45 °FLow clouds.1 mph97%30.14 "Hg1 mi
9:00 PM45 °FLow clouds.1 mph94%30.13 "Hg1 mi
8:00 PM45 °FLow clouds.1 mph92%30.11 "Hg3 mi
7:00 PM45 °FOvercast.1 mph89%30.11 "Hg5 mi
6:00 PM44 °FOvercast.1 mph89%30.10 "Hg4 mi
5:00 PM44 °FOvercast.1 mph86%30.09 "Hg5 mi
4:00 PM45 °FOvercast.1 mph85%30.08 "Hg6 mi
3:00 PM45 °FOvercast.3 mph87%30.06 "Hg6 mi
2:00 PM44 °FOvercast.2 mph84%30.07 "Hg6 mi
Weather by CustomWeather, © 2014

See weather overviewHow to use our weather pages